Regional Weather Roundup
Issued by NWS

Home | Current Version | Previous Version | Text Only | Print | Product List | Glossary On
Versions: 1 2 3 4 5 6 7 8 9 10 11 12 13 14 15 16 17 18 19 20 21 22 23 24 25 26 27 28 29 30 31 32 33 34 35 36 37 38 39 40 41 42 43 44 45 46 47 48 49 50
000
ASUS46 KSTO 071004
RWRCA

NORTHERN AND CENTRAL CA REGIONAL WEATHER ROUNDUP
NATIONAL WEATHER SERVICE SACRAMENTO CA
300 AM PDT THU MAY 07 2015

NOTE: FAIR INDICATES FEW OR NO CLOUDS BELOW 12,000 FEET WITH NO
SIGNIFICANT WEATHER AND/OR OBSTRUCTIONS TO VISIBILITY.

CAZ001-003-071100-
NORTHWEST AREA

CITY           SKY/WX    TMP DP  RH WIND       PRES   REMARKS
CRESCENT CITY  CLEAR     47  43  86 N10       30.01S
UKIAH          CLEAR     50  38  63 NE6       29.80F
$$

CAZ006-505>513-071100-
BAY AREA

CITY           SKY/WX    TMP DP  RH WIND       PRES   REMARKS
SANTA ROSA     PTCLDY    55  37  50 N7        29.74F
SAN RAFAEL     N/A       54  MM  MM MISG
NAPA           MOCLDY    50  42  74 SW10      29.74F
CONCORD        PTCLDY    52  45  77 S14       29.75F
OAKLAND CITY   N/A       52  MM  MM MISG
OAKLAND        PTCLDY    52  46  80 SW13      29.76F
SAN FRAN CITY  N/A       50  MM  79 MISG
SAN FRAN ARPT  PTCLDY    51  44  77 W14       29.77F
LIVERMORE      CLEAR     50  43  77 W9        29.76F
HAYWARD        CLEAR     52  44  74 SW8       29.77F
REDWOOD CITY   N/A       MM  MM  MM MISG
MOFFETT ARPT   CLEAR     52  45  77 SE3       29.79F
SAN JOSE ARPT  CLEAR     51  44  77 SE10      29.78F
$$
CAZ034-037-514>518-071100-
CENTRAL COAST

CITY           SKY/WX    TMP DP  RH WIND       PRES   REMARKS
WATSONVILLE    CLOUDY    50  46  86 SW3       29.82F
SALINAS        CLOUDY    55  44  66 SW9       29.83F
MONTEREY       CLOUDY    52  44  74 SW8       29.84F
SAN LUIS OBISP CLOUDY    52  43  71 W7        29.87F
SANTA MARIA    CLOUDY    53  44  71 NW6       29.89F
$$
CAZ015-016-071100-
NORTHERN SACRAMENTO VALLEY

CITY           SKY/WX    TMP DP  RH WIND       PRES   REMARKS
REDDING        MOCLDY    60  27  28 N12       29.84F
RED BLUFF      CLOUDY    61  28  28 N21G31    29.80F
OROVILLE       CLOUDY    63  34  33 NE21      29.76S
$$
CAZ016>018-071100-
SOUTHERN SACRAMENTO VALLEY

CITY           SKY/WX    TMP DP  RH WIND       PRES   REMARKS
AUBURN         MOCLDY    54  37  54 CALM      29.71F
BEALE AFB      CLOUDY    64  32  29 N24G32    29.68S
LINCOLN        FAIR      52  43  71 NE5       29.68F
MARYSVILLE     CLOUDY    64  35  34 N15G25    29.69F
SAC INTL ARPT  CLOUDY    56  47  71 NW8       29.69R
MATHER AIRPORT NOT AVBL
DOWNTOWN SAC   N/A       56  MM  MM MISG
SAC EXEC ARPT  PTCLDY    55  44  66 CALM      29.67F
VACAVILLE      MOCLDY    58  39  49 VRB7      29.71F
TRAVIS AFB     MOCLDY    54  44  68 SW17      29.69F
$$
CAZ019>021-071100-
SAN JOAQUIN VALLEY

CITY           SKY/WX    TMP DP  RH WIND       PRES   REMARKS
STOCKTON       MOCLDY    55  42  61 SW17      29.69F
MODESTO        CLEAR     55  40  56 NW5       29.70F
MERCED         CLEAR     51  42  71 W6        29.71F
LEMOORE        CLEAR     55  39  54 E6        29.74F
FRESNO         CLEAR     58  44  60 N3        29.73F
HANFORD        CLEAR     52  44  74 S6        29.74F
PORTERVILLE    CLEAR     50  37  62 SE7       29.77F
BAKERSFIELD    CLEAR     58  38  47 E5        29.76F
$$
CAZ011-012-071-071100-
NORTHERN MOUNTAINS

CITY           SKY/WX    TMP DP  RH WIND       PRES   REMARKS
YREKA          CLEAR     40  31  70 N14       29.99F WCI  32
MOUNT SHASTA   PTCLDY    41  29  62 NW12G33   29.87F
ALTURAS        PTCLDY    33  25  72 N15       29.91F WCI  23
$$
CAZ011-012-071-071100-
SIERRA NEVADA MTNS

CITY           SKY/WX    TMP DP  RH WIND       PRES   REMARKS
BLUE CANYON    FLURRIES  38  28  67 N9        29.79R WCI  31
TRUCKEE        CLOUDY    32  32 100 CALM      29.81F
TAHOE VLY ARPT CLOUDY    35  31  85 CALM      29.78F
MAMMOTH LAKES  FAIR      36  23  60 W9        29.79F WCI  29
$$



USA.gov is the U.S. government's official web portal to all federal, state and local government web resources and services.